CAPE
13 7 14 14 16 11 5 4 2 0 2 4 9 10 21 15 14 4 1 2 10 0 0 0 0 0 0 0 0 0 0 0 3 10 6 0 0 39
18 17 11 11 11 10 10 9 7 7 2 1 10 16 12 7 10 12 3 8 4 14 6 0 0 0 0 0 0 0 0 0 0 2 7 7 1 0
21 9 11 20 17 10 19 10 14 12 2 0 6 13 7 2 4 9 11 13 12 6 18 0 2 0 0 0 0 0 0 0 0 0 2 5 5 1
7 12 10 14 18 19 12 10 10 11 13 6 2 4 3 9 9 8 9 6 12 5 3 0 0 0 0 0 0 0 0 0 0 0 0 0 4 0
9 6 9 9 3 4 3 1 0 0 0 6 2 5 5 9 2 5 5 1 14 8 3 3 0 0 0 0 0 0 0 0 0 0 0 0 0 1
13 12 2 0 0 0 0 0 0 0 0 0 1 2 1 0 6 9 10 4 10 14 14 9 1 0 0 0 0 0 0 0 0 0 0 0 0 0
3 0 0 0 0 0 0 0 0 0 0 1 2 0 0 3 13 2 0 1 3 12 10 17 1 17 14 4 0 0 0 0 0 0 0 0 0 0
0 0 0 0 0 0 0 0 0 0 3 10 6 9 6 4 9 4 5 0 2 13 2 0 12 4 3 32 0 0 0 0 0 0 0 0 0 0
0 0 0 0 0 0 0 0 1 0 1 4 9 8 16 4 1 10 3 2 11 3 3 0 0 2 1 2 0 0 0 0 0 0 0 0 0 0
0 0 0 0 0 0 0 0 3 4 5 3 4 5 3 4 5 5 4 0 2 0 4 0 0 0 0 0 0 0 0 0 0 0 0 0 0 0
0 0 0 0 0 0 0 1 1 2 3 0 0 1 0 0 0 1 0 5 4 0 1 4 0 1 0 0 3 0 0 0 0 0 0 0 0 0
1 0 0 0 0 0 0 0 0 0 0 0 0 0 4 12 8 1 4 11 10 5 0 0 5 4 3 0 0 8 1 0 0 0 0 0 0 0
0 0 1 0 0 0 0 0 0 0 0 1 3 2 5 9 9 4 2 5 3 3 3 1 0 2 0 1 4 3 0 6 0 0 0 0 0 0
0 1 1 0 0 0 0 0 0 0 2 0 2 3 3 2 7 4 4 4 8 5 3 7 3 0 5 10 11 9 16 7 5 3 1 0 0 0
2 0 0 0 0 0 0 0 0 0 0 0 1 1 2 4 2 9 3 5 4 1 8 5 6 5 4 1 3 1 5 5 19 6 0 9 1 0
1 2 0 0 0 0 0 0 0 0 0 0 0 3 3 3 2 3 0 0 0 1 0 1 0 7 2 2 5 5 6 13 5 4 1 1 7 15
0 0 0 1 1 0 0 0 0 0 0 0 0 0 0 0 2 1 4 0 1 3 2 5 1 1 1 3 1 5 11 6 9 2 1 0 1 3
0 0 3 5 5 2 0 0 0 0 0 0 0 0 0 0 0 1 2 2 3 3 1 0 0 0 2 0 0 3 0 1 2 1 1 2 10 3
0 1 5 7 4 2 0 0 0 0 0 0 0 0 0 0 0 0 0 3 1 0 0 0 0 3 0 0 0 0 0 0 2 1 0 1 14 0
1 3 2 5 6 1 0 0 0 0 0 0 0 0 0 0 0 0 0 0 0 0 0 0 3 0 2 1 1 0 0 0 0 1 4 1 0 0
7 8 3 4 2 4 2 2 1 1 1 0 0 0 1 1 0 0 0 0 0 0 0 0 0 0 0 0 1 1 0 0 0 0 0 1 9 4
3 3 4 2 7 4 4 1 2 1 1 0 0 0 2 0 0 0 0 0 0 0 0 0 0 2 0 1 3 2 0 0 0 0 0 0 0 1
2 2 4 5 9 6 3 2 1 1 1 1 0 0 0 1 0 0 0 0 0 0 0 0 1 0 4 0 0 2 0 0 1 0 0 0 0 0
CIN
-1 -1 -2 -1 -2 -2 -7 -3 -3 -1 -4 -4 0 -3 0 -1 -1 -4 -5 -7 -6 -5 0 0 0 0 0 0 0 0 0 0 0 0 0 0 0 -7
-2 -1 -1 -1 -1 -1 -1 -5 -6 -3 -5 -2 -1 -1 -1 -5 -4 -2 -2 -9 -14 -6 -1 -4 0 0 0 0 0 0 0 0 0 0 0 0 0 0
-1 -2 -2 -2 -1 -1 -1 -5 -2 -3 -5 0 -2 -1 -3 -4 -5 -2 -2 -1 -2 -4 -2 0 -15 0 0 0 0 0 0 0 0 0 0 0 0 0
-1 -2 -2 -2 -2 -2 -4 -3 -4 -3 -1 -2 -4 -4 -5 -2 -4 -2 -2 -2 -2 -4 -8 -3 0 0 0 0 0 0 0 0 0 0 0 0 0 0
-1 -2 -2 -3 -4 -4 -3 -4 0 0 -4 -2 -4 -3 -4 -1 -2 -3 -3 -5 -3 -3 -8 -14 0 0 0 0 0 0 0 0 0 0 0 0 0 0
-1 -2 -2 -2 0 0 0 0 0 0 -2 -6 -5 -5 -5 0 -2 -3 -5 -5 -5 -3 -5 -4 -6 0 0 0 0 0 0 0 0 0 0 0 0 0
-2 -1 0 0 0 0 0 0 0 0 -5 -5 -4 -3 -5 -3 -2 -3 -2 -4 -4 -2 -1 -3 -1 -2 -5 -12 0 0 0 0 0 0 0 -1 -1 0
-3 0 0 0 0 0 0 0 0 -3 -2 -1 0 -1 -3 -2 -2 -1 -3 0 -2 -2 -4 -1 -6 -3 -2 -1 0 0 0 0 0 0 0 0 -1 -1
0 0 0 0 -1 0 0 -1 -3 -2 -2 -3 -1 -2 -1 -2 -3 -1 -2 -2 -1 -5 -4 0 -2 -3 -2 -24 0 0 0 0 0 0 0 0 0 -9
-2 -1 -1 0 0 0 0 -2 -2 -3 -3 -3 -2 -2 -3 -2 -2 -3 -3 -1 -1 -1 -2 -1 0 0 0 0 0 0 0 0 0 0 0 0 0 0
-1 -1 0 0 0 0 0 -2 -3 -2 -1 -1 0 -1 -1 0 -2 0 0 0 -1 -1 -2 -2 0 -5 0 0 -8 0 0 0 0 0 0 0 0 0
-1 -1 0 0 0 0 0 0 0 -3 0 0 -3 -3 -1 -1 -1 -9 -2 0 0 -1 0 -1 -2 -2 -1 0 -1 -4 -2 0 0 0 0 0 0 0
0 0 -2 0 0 0 0 0 -1 0 0 -3 -3 -2 -1 -1 -1 -2 -2 -2 -1 0 -1 -1 -1 -4 0 -2 -2 -3 0 -1 -2 0 0 0 0 0
-1 -1 -1 0 0 0 0 0 0 0 -1 -3 -3 -2 -2 -2 -1 -1 -1 -1 0 -1 -1 -2 0 -1 -1 0 -1 -3 -1 -3 -2 0 -1 0 0 0
0 0 0 0 0 0 0 0 0 -2 0 -2 -3 -2 -3 -1 -1 -1 -1 0 0 0 0 -1 -1 -1 -1 -1 -1 -1 -2 -3 -2 -2 0 -1 -1 0
0 -3 0 0 0 0 0 0 0 -1 0 0 -3 -2 -1 -1 -1 -1 -1 0 0 0 0 -1 -1 0 0 -1 -1 -1 -2 -1 -1 0 0 -6 -3 0
0 0 -2 -2 -2 -1 0 0 0 0 0 0 0 -3 0 0 -3 -1 -1 -1 -1 0 -1 -1 -1 0 0 -1 0 -1 -1 -1 0 -1 0 0 -1 -4
0 -1 -1 -1 -1 -2 -2 0 0 0 0 0 0 0 0 0 0 -2 -2 -1 -1 -1 -1 -1 0 0 0 -1 0 -1 0 -2 -1 0 -1 -1 -1 -2
-1 -1 -1 -1 -1 -2 -1 0 0 0 0 0 0 0 -3 0 0 -2 -3 -1 -1 0 0 0 -1 -1 0 0 0 0 0 -1 -1 0 0 -5 -1 -3
-1 -1 -2 -2 -2 -2 -1 0 0 -1 -1 0 0 -2 -2 -2 -1 0 0 0 0 0 0 0 -2 -1 0 0 0 0 0 0 0 -1 -2 -1 0 0
-1 -1 -2 -2 -2 -2 -2 -2 -2 -1 -1 0 -2 -1 -2 -2 -2 0 0 0 0 0 0 -1 -2 0 0 -1 0 0 0 0 0 0 0 -1 -1 -1
-2 -1 -3 -2 -1 -2 -1 -3 -2 -4 -5 -2 0 -1 -1 -2 -1 0 0 0 0 0 0 0 -1 -1 -1 0 0 0 0 0 0 0 0 0 0 0
-3 -4 -1 -1 0 0 0 -1 -1 -3 -2 -2 0 0 -1 -1 0 0 0 0 0 0 0 0 -2 0 -1 -1 0 -1 0 0 0 -1 0 0 0 0
Wind_Speed
30 33 26 24 25 26 27 28 32 38 39 39 39 38 38 37 37 39 41 43 44 43 46 44 40 39 41 41 40 40 41 40 41 39 36 40 36 46
31 27 24 25 25 26 27 29 30 36 42 36 38 40 40 40 40 40 40 42 43 43 44 42 35 34 37 39 39 39 39 39 38 40 38 35 33 32
26 24 24 24 25 27 29 31 32 31 36 37 37 38 41 42 41 40 40 40 40 42 42 41 30 33 35 38 40 39 38 38 37 37 38 37 32 27
24 23 23 25 28 29 32 32 33 34 36 37 37 40 38 38 37 38 37 37 38 40 41 29 31 35 38 39 39 39 37 37 37 36 35 37 34 30
24 23 25 28 32 32 33 34 35 34 33 33 36 32 33 33 33 33 34 35 35 38 38 35 36 40 35 36 37 39 37 36 37 35 33 33 34 29
22 24 29 30 31 33 34 33 32 33 32 31 29 31 31 30 30 31 31 30 32 34 36 37 36 33 35 38 37 38 36 36 35 35 34 33 32 32
25 26 28 29 29 29 29 32 31 30 29 27 27 29 28 29 28 29 31 29 30 32 35 36 33 33 33 36 37 34 31 31 33 34 33 34 34 32
24 27 28 29 27 30 26 26 26 25 24 24 26 26 26 28 28 27 26 30 29 28 32 34 33 35 34 31 22 22 25 27 28 30 34 34 34 35
24 27 29 28 29 31 31 30 26 22 18 18 19 18 25 26 26 24 24 24 25 32 33 35 32 32 31 30 26 29 29 29 28 29 30 32 35 34
25 26 27 29 30 31 31 28 26 23 23 26 25 22 21 20 19 16 16 16 19 29 32 36 33 34 32 33 36 33 32 31 31 30 30 30 30 33
24 24 26 26 29 32 29 27 26 23 23 26 25 16 14 12 10 9 10 10 10 15 26 27 32 31 31 32 32 34 33 32 32 32 31 31 31 29
24 24 23 25 27 29 27 26 23 24 33 32 22 19 16 14 10 7 3 5 6 10 15 23 27 24 27 28 29 30 29 31 32 33 33 32 31 32
23 23 22 29 30 27 24 21 23 26 26 22 24 20 17 16 15 10 4 2 7 14 20 25 26 25 27 25 20 23 24 26 27 30 32 33 32 31
21 21 23 29 27 24 21 21 24 21 23 27 26 22 20 17 13 9 3 5 12 18 22 22 23 24 24 25 24 20 21 22 23 25 27 29 31 32
19 20 21 22 21 20 20 18 18 23 25 27 29 24 19 14 8 9 6 3 7 14 20 23 24 24 24 24 24 21 21 20 21 22 24 27 27 28
15 17 22 16 15 14 15 19 20 22 22 23 28 24 20 17 11 10 3 5 5 17 12 18 24 25 26 25 25 25 23 21 18 19 21 24 27 27
21 21 19 21 22 21 20 20 19 21 24 25 27 29 28 23 13 8 6 13 13 13 12 11 13 19 24 24 22 22 22 21 19 17 19 20 23 25
18 18 19 19 20 20 20 20 19 20 23 25 27 28 29 29 21 7 8 10 16 18 16 15 15 14 19 20 21 21 17 15 14 15 18 19 19 21
13 14 16 17 18 17 18 18 19 20 20 23 27 28 28 28 28 24 20 15 16 16 18 19 18 17 16 13 15 15 17 15 16 16 17 17 18 17
10 12 14 14 15 15 16 17 18 18 19 21 24 27 27 27 27 26 24 23 20 18 18 17 17 18 19 20 19 18 17 18 17 17 16 16 15 14
11 11 12 13 13 13 14 15 15 15 17 18 20 24 27 27 26 26 25 24 22 22 21 21 21 21 20 20 20 21 18 16 17 18 18 19 20 17
10 11 14 14 14 14 13 13 13 13 14 16 19 20 23 26 26 26 25 25 24 23 23 23 22 21 21 23 22 21 18 17 17 16 16 16 18 18
10 10 11 12 13 13 12 12 12 13 13 14 16 18 21 23 26 26 25 25 25 24 24 23 22 21 21 21 21 20 16 17 16 16 16 15 15 15
Wind_Direction
328 326 326 328 328 329 328 327 324 321 320 320 319 318 316 315 314 312 309 304 302 300 294 292 293 291 288 286 285 283 280 277 272 270 270 264 268 258
331 328 328 329 329 328 327 325 324 321 317 322 320 318 317 314 313 313 311 307 302 299 295 291 290 290 289 285 283 283 280 277 273 267 265 267 269 275
330 331 329 330 329 328 326 325 325 324 320 321 320 319 316 315 313 313 311 308 305 300 295 295 288 288 289 284 280 279 280 276 273 269 263 263 267 267
335 334 332 331 327 327 327 327 326 324 322 320 321 320 319 319 318 316 315 311 307 301 296 296 289 288 286 283 277 275 277 275 272 268 265 260 261 260
337 336 332 329 327 329 329 328 327 325 324 323 323 325 324 325 323 321 319 315 310 304 297 291 286 282 283 281 275 271 271 273 267 265 262 259 255 257
338 335 331 330 331 332 331 331 330 328 328 327 328 328 328 329 328 326 324 322 316 308 300 292 289 286 278 278 273 267 267 268 266 261 258 256 253 249
337 335 334 334 334 336 337 334 333 333 332 332 331 331 332 333 332 330 326 324 320 312 301 291 287 284 281 274 268 268 265 269 265 259 258 251 248 247
338 336 336 338 342 339 340 341 338 336 333 332 331 332 333 333 335 334 332 329 323 317 303 290 288 279 278 279 279 273 268 269 268 262 256 252 247 245
340 338 339 342 344 342 341 340 339 337 335 333 332 333 337 339 336 335 335 333 326 310 302 289 287 281 277 278 274 269 268 267 266 263 259 256 249 247
340 341 343 345 348 346 344 344 343 343 341 338 339 341 340 339 336 332 331 326 327 314 298 285 284 277 277 272 268 265 266 264 260 260 259 256 256 248
342 345 347 349 350 348 350 348 347 348 346 343 344 345 340 336 334 342 345 355 350 341 312 295 284 278 276 271 266 260 260 261 258 257 257 254 252 255
344 347 355 356 354 353 353 353 354 351 332 338 354 358 1 4 7 11 354 352 9 11 347 299 283 283 277 272 264 259 259 259 258 256 255 255 254 253
343 349 355 353 353 356 360 1 357 351 348 357 357 5 11 16 19 24 29 21 220 230 244 269 252 266 264 271 268 264 263 262 261 258 255 255 255 255
344 350 353 350 357 3 7 8 1 5 359 350 356 7 14 22 30 40 69 205 219 226 238 241 249 248 250 255 261 272 271 269 266 263 259 257 254 254
345 350 354 358 6 12 16 16 18 8 2 351 348 6 18 26 40 47 69 182 214 214 218 238 239 243 247 254 263 274 275 277 274 269 264 259 257 255
347 352 351 4 12 19 22 21 18 11 10 4 346 4 18 26 43 52 119 204 235 63 127 220 254 256 247 254 261 267 276 275 279 275 271 266 258 256
336 342 351 355 358 7 17 22 23 19 8 4 350 343 352 12 42 63 93 245 249 261 266 242 220 212 221 247 265 267 269 273 274 275 273 270 263 258
334 338 342 349 355 2 9 15 23 24 14 4 357 341 338 339 354 71 73 219 256 268 259 259 260 270 212 236 252 250 268 274 285 281 276 272 270 265
331 335 338 343 350 359 6 13 16 21 24 14 353 344 334 330 325 309 294 255 250 249 257 263 266 269 263 254 267 286 272 292 286 283 279 277 274 282
321 328 333 340 347 354 1 7 13 19 22 19 8 348 338 327 324 322 310 304 278 256 251 246 260 268 265 269 272 279 288 282 282 280 287 286 294 301
320 321 325 332 340 348 356 1 8 14 17 19 19 4 342 333 324 322 316 312 292 295 275 267 265 260 239 235 230 228 264 282 279 270 270 261 253 271
315 318 320 323 329 337 346 355 2 9 15 16 14 15 4 338 329 322 319 313 311 306 294 291 280 267 251 231 245 254 280 275 276 281 288 281 270 264
316 317 317 319 323 327 334 342 352 358 4 9 11 10 7 3 337 327 322 317 313 310 309 299 298 293 287 287 281 281 299 293 293 290 293 296 301 302